Погода в Бейруте

Ливан     33°50′09″N   35°30′15″E
темп.,
°C
ветер,
м/с
пор.,
м/с
влажн.,
%
обл.,
%
осадки,
мм/ч
давл.,
гПа
погр.,
м
7 марта, вс
вс723:00+13ссв237511 0.0 1021151
02:00+12ссв347734 0.0 1019246
05:00+12с33760 0.0 1018195
08:00+14ссз226517 0.0 1018329
11:00+16сз326061 0.0 1018440
14:00+15з225944 0.0 1016537
17:00+14юз22610 0.0 1016432
20:00+13ю23650 0.0 1016388
8 марта, пн
пн823:00+12ю34700 0.0 1016411
02:00+12ююв34760 0.0 1015315
05:00+12ююв347357 0.1 1015295
08:00+14ю356850 0.1 1016727
11:00+16юз67660 0.1 1016941
14:00+16юз66722 0.4 1015851
17:00+15юз457316 0.2 1015771
20:00+13ю34759 0.2 1016597
9 марта, вт
вт923:00+13ююв34681 0.0 1016316
02:00+12ю33681 0.0 1016257
05:00+12ю225811 0.0 1016201
08:00+15ююз33515 0.0 1017411
11:00+16зюз445648 0.0 1017371
14:00+17зсз115274 0.0 1015264
17:00+15св1263100 0.0 1015271
20:00+17всв2354100 0.0 101691
10 марта, ср
ср1023:00+15св456449 0.0 1015125
02:00+15св235737 0.0 101455
05:00+16св23510 0.0 101442
08:00+19всв22450 0.0 101457
11:00+22ссз23390 0.0 1012488
14:00+23з14360 0.0 1009502
17:00+21ююз12470 0.0 1008108
20:00+19ю344717 0.0 100851
11 марта, чт
чт1123:00+17ююз5757100 0.0 1008247
02:00+16ю4652100 0.0 1008356
05:00+15ююв467664 0.0 1009467
08:00+16ю467634 0.1 1010683
11:00+17юз787517 0.4 1010803
14:00+16юз897744 1.0 1008954
17:00+15юз81082100 2.3 1008966
20:00+14зюз91281100 6.3 10091155